Location: Hiram
(41.3130°N, 81.1440°W)
Time: 16:43:41
(UTC-04:00)

Iridium 62 - Visible Passes

Search period start: 18 April 2014 00:00
Search period end: 28 April 2014 00:00
Orbit: 776 x 779 km, 86.4° (Epoch: 18 April)

Date Brightness Start Highest point End Pass type
(mag) Time Alt. Az. Time Alt. Az. Time Alt. Az.
18 Apr 8.5 00:11:59 10° WNW 00:13:04 11° WNW 00:14:10 10° W visible
18 Apr 6.1 21:54:35 10° N 21:59:36 46° E 22:00:45 40° ESE visible
18 Apr 7.9 23:36:13 10° NW 23:39:56 20° W 23:41:14 18° W visible
19 Apr 6.9 21:21:35 10° NNE 21:25:53 26° ENE 21:27:42 21° ESE visible
19 Apr 7.1 23:01:56 10° NNW 23:06:40 36° W 23:08:12 30° WSW visible
20 Apr 7.6 20:49:18 10° NE 20:52:02 14° ENE 20:54:40 10° ESE visible
20 Apr 6.1 22:28:06 10° N 22:33:17 67° W 22:35:10 39° SSW visible
21 Apr 5.8 21:54:34 10° N 21:59:46 67° E 22:02:10 32° SSE visible
21 Apr 8.4 23:37:15 10° NW 23:39:49 14° WNW 23:42:24 10° WSW visible
22 Apr 6.4 21:21:19 10° NNE 21:26:08 36° E 21:29:11 20° SE visible
22 Apr 7.7 23:02:26 10° NNW 23:06:38 25° W 23:09:42 15° SW visible
23 Apr 7.2 20:48:31 10° NNE 20:52:21 20° ENE 20:56:10 10° ESE visible
23 Apr 6.7 22:28:21 10° NNW 22:33:19 46° W 22:36:44 19° SSW visible
24 Apr 5.8 21:54:38 10° N 21:59:52 85° W 22:03:49 18° S visible
25 Apr 6.0 21:21:13 10° N 21:26:18 52° E 21:30:55 12° SSE visible
25 Apr 8.3 23:03:09 10° NW 23:06:32 18° W 23:09:56 10° WSW visible
26 Apr 6.8 20:48:07 10° NNE 20:52:37 29° E 20:57:05 10° SE visible
26 Apr 7.4 22:28:43 10° NNW 22:33:18 32° W 22:37:51 10° SW visible
27 Apr 6.4 21:54:48 10° N 21:59:56 59° W 22:05:01 10° SSW visible
